User: anonymous   Login
Location: Poughquag
(41.6090°N, 73.6820°W)
Time: 04:49:18
(UTC-05:00)
Language:

CUTE-I - Orbit

View from above orbital plane
View from above orbital plane
View from above satellite
View from above satellite

Ground track
Ground track

The orbit data is extracted from the following two-line orbital elements,

1 27844U 03031E   23331.95483968  .00000757  00000-0  35561-3 0  9998
2 27844  98.6789 336.8462 0010079  17.5511 342.6013 14.22976569 59029
Epoch (UTC): 27 November 2023 22:54:58
Eccentricity: 0.0010079
inclination: 98.6789°
perigee height: 808 km
apogee height: 822 km
right ascension of ascending node: 336.8462°
argument of perigee: 17.5511°
revolutions per day: 14.22976569
mean anomaly at epoch: 342.6013°
orbit number at epoch: 5902

The dashed part of the orbit path shows where the satellite is in the earth's shadow,  

DLR